SCP
0 0 0 0 0 0 0 0 0 0 0 0 0 0 0 0 0 0 0 0 0 0 0 0 0 0 0 0 0 0 0 0 0 0 0 0 0 0 0 0 0 0 0
0 0 0 0 0 0 0 0 0 0 0 0 0 0 0 0 0 0 0 0 0 0 0 0 0 0 0 0 0 0 0 0 0 0 0 0 0 0 0 0 0 0 0
0 0 0 0 0 0 0 0 0 0 0 0 0 0 0 0 0 0 0 0 0 0 0 0 0 0 0 0 0 0 0 0 0 0 0 0 0 0 0 0 0 0 0
0 0 0 0 0 0 0 0 0 0 0 0 0 0 0 0 0 0 0 0 0 0 0 0 0 0 0 0 0 0 0 0 0 0 0 0 0 0 0 0 0 0 0
0 0 0 0 0 0 0 0 0 0 0 0 0 0 0 0 0 0 0 0 0 0 0 0 0 0 0 0 0 0 0 0 0 0 0 0 0 0 0 0 0 0 0
0 0 0 0 0 0 0 0 0 0 0 0 0 0 0 0 0 0 0 0 0 0 0 0 0 0 0 0 0 0 0 0 0 0 0 0 0 0 0 0 0 0 0
0 0 0 0 0 0 0 0 0 0 0 0 0 0 0 0 0 0 0 0 0 0 0 0 0 0 0 0 0 0 0 0 0 0 0 0 0 0 0 0 0 0 0
0 0 0 0 0 0 0 0 0 0 0 0 0 0 0 0 0 0 0 0 0 0 0 0 0 0 0 0 0 0 0 0 0 0 0 0 0 0 0 0 0 0 0
0 0 0 0 0 0 0 0 0 0 0 0 0 0 0 0 0 0 0 0 0 0 0 0 0 0 0 0 0 0 0 0 0 0 0 0 0 0 0 0 0 0 0
0 0 0 0 0 0 0 0 0 0 0 0 0 0 0 0 0 0 0 0 0 0 0 0 0 0 0 0 0 0 0 0 0 0 0 0 0 0 0 0 0 0 0
0 0 0 0 0 0 0 0 0 0 0 0 0 0 0 0 0 0 0 0 0 0 0 0 0 0 0 0 0 0 0 0 0 0 0 0 0 0 0 0 0 0 0
0 0 0 0 0 0 0 0 0 0 0 0 0 0 0 0 0 0 0 0 0 0 0 0 0 0 0 0 0 0 0 0 0 0 0 0 0 0 0 0 0 0 0
0 0 0 0 0 0 0 0 0 0 0 0 0 0 0 0 0 0 0 0 0 0 0 0 0 0 0 0 0 0 0 0 0 0 0 0 0 0 0 0 0 0 0
0 0 0 0 0 0 0 0 0 0 0 0 0 0 0 0 0 0 0 0 0 0 0 0 0 0 0 0 0 0 0 0 0 0 0 0 0 0 0 0 0 0 0
0 0 0 0 0 0 0 0 0 0 0 0 0 0 0 0 0 0 0 0 0 0 0 0 0 0 0 0 0 0 0 0 0 0 0 0 0 0 0 0 0 0 0
0 0 0 0 0 0 0 0 0 0 0 0 1 0 0 0 0 0 0 0 0 0 0 0 0 0 0 0 0 0 0 0 0 0 0 0 0 0 0 0 0 0 0
0 0 0 0 0 0 0 0 0 0 0 0 1 0 0 0 0 0 0 0 0 0 0 0 0 0 0 0 0 0 0 0 0 0 0 0 0 0 0 0 0 0 0
0 0 0 0 0 0 0 0 0 0 0 0 0 0 0 0 0 0 0 0 0 0 0 0 0 0 0 0 0 0 0 0 0 0 0 0 0 0 0 0 0 0 0
0 0 0 0 0 0 0 0 0 0 0 0 0 0 0 0 0 0 0 0 0 0 0 0 0 0 0 0 0 0 0 0 0 0 0 0 0 0 0 0 0 0 0
0 0 0 0 0 0 0 0 0 0 0 0 0 0 0 0 0 0 0 0 0 0 0 0 0 0 0 0 0 0 0 0 0 0 0 0 0 0 0 0 0 0 0
0 0 0 0 0 0 0 0 0 0 0 0 0 0 0 0 0 0 0 0 0 0 0 0 0 0 0 0 0 0 0 0 0 0 0 0 0 0 0 0 0 0 0
0 0 0 0 0 0 0 0 0 0 0 0 0 0 0 0 0 0 0 0 0 0 0 0 0 0 0 0 0 0 0 0 0 0 0 0 0 0 0 0 0 0 0
0 0 0 0 0 0 0 0 0 0 0 0 0 0 0 0 0 0 0 0 0 0 0 0 0 0 0 0 0 0 0 0 0 0 0 0 0 0 0 0 0 0 0
0 0 0 0 0 0 0 0 0 0 0 0 0 0 0 0 0 0 0 0 0 0 0 0 0 0 0 0 0 0 0 0 0 0 0 0 0 0 0 0 0 0 0
0 0 0 0 0 0 0 0 0 0 0 0 0 0 0 0 0 0 0 0 0 0 0 0 0 0 0 0 0 0 0 0 0 0 0 0 0 0 0 0 0 0 0
0 0 0 0 0 0 0 0 0 0 0 0 0 0 0 0 0 0 0 0 0 0 0 0 0 0 0 0 0 0 0 0 0 0 0 0 0 0 0 0 0 0 0
Wind_Speed
8 9 8 8 9 11 12 13 13 13 14 15 15 15 15 15 15 15 15 16 16 16 18 19 19 20 20 20 20 21 21 21 21 22 23 24 24 24 24 23 19 18 24
10 10 10 8 10 12 12 13 12 12 14 15 15 15 16 16 16 16 16 16 16 17 19 19 20 20 20 20 20 20 20 20 19 16 16 21 23 24 24 24 23 18 24
11 11 11 9 11 12 12 12 12 13 14 14 15 15 16 16 16 17 16 16 17 18 19 20 20 20 20 20 20 20 20 19 17 13 14 16 19 23 24 24 24 24 24
11 11 11 11 11 12 12 12 12 13 13 14 15 15 16 16 17 17 17 17 17 19 19 20 20 20 20 20 20 20 20 18 15 12 14 15 16 21 23 23 24 24 24
11 10 11 11 12 12 12 12 12 13 13 14 14 15 16 17 17 17 17 17 18 19 20 20 20 20 20 20 20 19 18 17 13 15 15 15 15 20 22 22 23 23 23
11 10 11 10 12 12 12 13 13 13 13 14 14 15 16 16 17 17 18 18 18 19 19 19 20 20 20 20 20 19 17 14 14 15 15 15 15 20 22 22 22 22 23
11 10 11 9 10 11 11 12 12 13 13 14 14 15 16 16 17 17 18 18 19 19 19 19 20 20 20 20 19 19 17 13 15 15 15 15 17 21 22 23 23 23 24
10 10 10 9 9 9 10 10 11 12 13 14 14 15 15 16 16 17 18 18 19 19 19 20 20 20 20 21 20 19 15 11 14 15 15 16 19 22 23 23 24 24 25
10 9 9 10 10 8 8 9 10 11 12 12 14 14 14 15 16 16 16 18 19 19 19 20 20 20 20 20 20 19 16 13 15 12 14 13 18 22 23 24 24 25 25
9 9 9 9 10 10 10 9 9 10 11 12 13 13 13 13 14 13 14 17 19 19 19 20 20 20 20 20 19 16 12 12 15 14 11 13 20 23 24 24 25 25 25
8 9 9 9 9 9 9 9 10 10 11 12 12 13 12 11 12 11 14 16 18 19 20 20 20 20 18 18 17 14 10 10 13 11 11 16 21 23 24 24 24 25 25
13 11 8 9 8 8 7 8 8 8 10 10 11 12 8 8 8 11 13 14 16 17 19 19 17 14 11 9 10 9 8 12 11 10 12 18 21 22 23 23 24 24 24
15 12 9 8 7 7 6 6 5 5 6 9 11 11 9 8 8 8 8 9 11 12 11 12 10 8 8 7 7 8 9 9 8 9 12 18 20 21 22 23 23 23 23
14 14 11 9 8 8 6 6 6 6 6 6 9 11 9 7 7 7 6 7 6 5 7 7 7 9 10 10 10 10 10 7 8 8 11 17 19 20 21 22 22 22 22
15 14 12 10 9 8 7 6 6 7 7 8 8 10 11 8 9 8 7 6 7 7 8 8 9 10 10 10 9 10 10 10 10 9 9 17 19 20 20 21 21 21 21
16 15 12 11 10 9 8 8 8 7 7 8 8 10 12 9 9 9 8 7 7 7 7 8 10 10 9 8 10 10 10 9 9 9 9 12 19 19 19 19 19 19 19
15 13 12 11 11 11 11 11 8 8 7 7 7 10 11 10 11 10 9 8 8 8 10 9 10 9 9 9 10 9 8 8 9 9 8 7 10 16 18 18 18 18 18
14 14 13 9 11 11 11 10 8 8 8 7 7 8 11 12 12 10 9 9 9 9 9 9 9 9 9 8 8 7 7 7 8 8 7 7 6 7 13 17 17 17 17
15 14 14 13 12 12 10 9 8 7 8 7 7 7 9 12 13 11 10 9 11 9 9 9 9 9 10 9 8 6 6 6 6 7 8 8 7 7 7 12 16 17 16
14 14 14 13 13 11 9 7 6 7 6 6 6 7 10 10 12 11 10 12 12 10 9 9 11 9 9 10 9 7 5 5 4 5 6 6 6 7 7 7 7 10 14
15 16 16 15 14 12 9 8 8 8 6 5 5 7 9 10 12 11 10 13 12 11 12 14 12 13 10 10 8 6 5 5 5 4 4 5 5 6 6 6 5 5 5
17 17 17 17 16 15 12 9 6 7 5 5 4 5 8 9 11 10 14 13 13 11 13 14 15 10 8 10 7 7 6 5 4 3 3 4 5 4 5 5 6 5 4
16 18 16 18 18 17 15 9 5 4 3 4 6 6 7 9 10 10 14 13 14 14 15 17 17 14 12 10 7 6 6 7 6 5 5 4 4 4 4 4 4 4 4
16 15 16 17 17 17 16 14 15 12 12 12 7 6 7 8 10 10 12 13 15 13 16 17 17 12 15 12 7 4 3 4 6 7 6 5 5 5 4 4 3 3 2
13 13 14 16 17 17 17 17 17 14 12 8 8 9 9 8 9 10 11 12 13 12 15 17 15 13 12 12 9 6 4 3 3 5 6 7 6 5 4 4 3 3 2
9 11 12 15 17 17 18 18 18 18 15 12 12 11 9 7 7 10 10 11 12 11 14 16 15 15 12 12 9 7 6 6 6 4 5 7 6 5 5 4 4 3 2
Wind_Direction
168 166 166 174 148 130 123 116 108 100 93 87 83 81 79 77 77 77 78 79 80 82 82 81 79 76 74 71 69 68 67 65 64 65 65 62 60 58 56 52 51 51 51
151 156 156 161 142 132 124 117 110 100 93 87 84 81 80 79 79 79 79 81 83 85 83 82 80 78 75 72 70 69 68 66 64 61 68 67 61 60 59 57 56 56 55
149 151 154 147 137 131 126 121 114 104 96 90 85 82 81 80 80 80 81 82 84 85 85 84 81 80 77 74 72 70 69 66 63 57 65 67 64 62 61 60 59 58 57
151 152 151 140 136 132 129 125 119 110 102 95 88 85 83 82 82 82 82 83 85 86 86 84 83 81 79 77 75 73 70 67 59 62 67 66 66 65 64 63 61 60 59
152 153 144 144 140 138 134 131 125 118 109 101 94 89 87 86 85 85 85 86 87 87 86 85 84 82 81 79 77 75 72 70 63 69 71 70 68 67 67 66 65 63 61
153 153 147 149 144 144 141 138 133 126 117 108 100 95 92 90 90 90 89 89 88 87 87 86 86 85 83 81 79 76 72 67 71 70 70 69 69 70 69 68 67 65 63
155 154 151 149 146 146 145 143 140 133 125 116 108 102 98 97 96 95 94 93 91 90 90 89 88 87 85 83 79 75 70 61 70 71 68 67 67 68 67 67 67 64 62
156 155 153 144 145 147 148 147 144 139 132 124 117 111 106 103 102 101 100 98 97 95 93 92 90 89 87 84 80 74 64 58 72 70 69 68 66 67 67 66 65 63 61
160 161 161 160 157 151 150 150 147 143 137 130 123 115 109 106 105 104 104 104 102 100 97 95 93 91 88 84 79 74 62 57 72 69 67 66 67 69 68 67 65 64 62
168 170 168 168 170 168 165 156 152 148 142 134 125 117 111 109 107 107 110 109 107 105 102 99 96 92 87 83 78 71 58 67 71 70 68 70 70 71 70 68 66 65 63
180 180 179 176 176 176 173 162 166 160 151 143 135 132 135 130 124 120 112 113 112 110 107 103 99 94 90 81 75 68 62 72 73 69 67 69 73 72 71 69 68 66 65
189 187 185 186 181 182 176 178 183 176 170 170 158 156 151 138 125 120 111 111 112 111 109 105 102 99 95 90 79 69 74 77 74 70 64 67 73 73 73 70 68 66 64
193 188 191 189 187 190 189 192 189 187 182 180 171 165 153 140 134 131 128 121 121 120 114 112 105 94 89 86 83 81 80 78 76 73 61 64 73 75 74 73 70 67 64
198 196 193 193 195 198 200 201 198 194 191 187 180 171 162 155 153 150 147 144 140 128 124 115 105 100 95 90 88 87 84 81 80 78 61 60 70 74 75 74 71 68 65
205 202 198 199 203 202 204 207 208 204 201 195 187 179 174 167 162 159 152 150 143 135 130 123 117 111 104 97 91 90 87 85 85 84 72 60 66 70 72 72 71 68 65
210 206 201 203 207 208 211 211 213 212 206 202 194 186 182 175 167 161 155 151 146 140 132 128 125 117 108 103 97 92 92 91 87 87 85 71 64 66 69 70 69 67 65
210 208 204 206 207 211 215 217 217 213 209 205 200 193 186 181 172 165 158 155 148 140 133 127 124 118 114 110 103 96 91 88 92 89 86 81 74 66 65 67 67 65 62
211 208 207 203 208 210 213 216 215 214 210 208 203 196 190 184 176 167 160 157 150 145 143 138 137 128 123 119 111 102 96 92 88 89 87 86 81 76 68 64 62 62 60
212 209 207 205 208 208 208 211 212 210 211 207 202 198 192 185 176 169 163 157 153 149 148 144 142 137 131 124 114 105 99 95 94 94 91 87 83 82 79 70 61 56 56
211 210 208 205 206 201 197 200 202 206 207 205 204 200 190 183 177 168 160 159 156 151 151 149 142 137 133 129 119 103 97 102 104 103 103 97 91 88 84 78 68 58 53
208 207 206 205 201 193 190 192 197 204 200 201 202 196 190 180 174 167 160 162 163 162 161 154 145 140 140 139 128 119 110 111 116 118 120 117 108 99 92 82 72 65 55
208 207 207 207 201 198 198 194 197 190 194 194 184 195 190 180 174 170 166 167 168 161 158 157 152 147 157 170 156 152 157 167 167 148 146 139 132 124 107 92 83 70 58
212 210 207 206 203 200 196 185 161 157 159 180 195 194 191 183 177 174 174 170 171 168 167 170 168 164 169 184 196 183 174 176 159 169 171 167 160 151 134 120 103 83 63
218 213 212 208 205 200 194 193 192 195 200 200 189 182 179 185 182 179 178 176 176 176 174 177 180 179 171 177 188 226 248 153 160 160 177 182 180 176 164 153 143 117 77
218 211 209 208 207 202 200 201 203 208 210 192 178 178 179 183 185 183 181 181 183 183 180 181 182 184 182 183 177 170 172 166 169 160 166 175 185 187 182 175 171 158 134
213 206 205 206 208 205 204 206 208 209 203 188 187 182 181 180 185 188 186 187 188 188 185 185 184 187 187 189 185 179 172 171 177 170 157 167 178 173 183 191 192 185 183